TimeCDT,TemperatureF,Dew PointF,Humidity,Sea Level PressureIn,VisibilityMPH,Wind Direction,Wind SpeedMPH,Gust SpeedMPH,PrecipitationIn,Events,Conditions,WindDirDegrees,DateUTC
12:15 AM,46.4,46.4,100,30.20,10.0,Calm,Calm,-,N/A,,Clear,0,2012-09-01 05:15:00
12:35 AM,46.4,42.8,87,30.20,10.0,Calm,Calm,-,N/A,,Clear,0,2012-09-01 05:35:00
12:55 AM,44.6,44.6,100,30.20,10.0,Calm,Calm,-,N/A,,Clear,0,2012-09-01 05:55:00
1:15 AM,44.6,42.8,93,30.20,10.0,Calm,Calm,-,N/A,,Clear,0,2012-09-01 06:15:00
1:35 AM,44.6,44.6,100,30.21,10.0,Calm,Calm,-,N/A,,Clear,0,2012-09-01 06:35:00
1:55 AM,44.6,44.6,100,30.20,10.0,Calm,Calm,-,N/A,,Clear,0,2012-09-01 06:55:00
2:15 AM,44.6,44.6,100,30.21,10.0,Calm,Calm,-,N/A,,Clear,0,2012-09-01 07:15:00
2:35 AM,44.6,42.8,93,30.21,10.0,Calm,Calm,-,N/A,,Clear,0,2012-09-01 07:35:00
2:55 AM,42.8,42.8,100,30.21,10.0,Calm,Calm,-,N/A,,Clear,0,2012-09-01 07:55:00
3:35 AM,42.8,42.8,100,30.21,10.0,Calm,Calm,-,N/A,,Clear,0,2012-09-01 08:35:00
4:35 AM,41.0,41.0,100,30.22,10.0,Calm,Calm,-,N/A,,Clear,0,2012-09-01 09:35:00
4:55 AM,42.8,42.8,100,30.22,7.0,Calm,Calm,-,N/A,,Clear,0,2012-09-01 09:55:00
5:15 AM,42.8,42.8,100,30.22,10.0,Calm,Calm,-,N/A,,Clear,0,2012-09-01 10:15:00
5:35 AM,42.8,42.8,100,30.23,10.0,Calm,Calm,-,N/A,,Clear,0,2012-09-01 10:35:00
5:55 AM,42.8,42.8,100,30.23,10.0,Calm,Calm,-,N/A,,Clear,0,2012-09-01 10:55:00
6:15 AM,41.0,41.0,100,30.23,10.0,Calm,Calm,-,N/A,,Clear,0,2012-09-01 11:15:00
6:35 AM,42.8,42.8,100,30.24,10.0,Calm,Calm,-,N/A,,Clear,0,2012-09-01 11:35:00
6:55 AM,42.8,42.8,100,30.24,10.0,Calm,Calm,-,N/A,,Clear,0,2012-09-01 11:55:00
7:15 AM,44.6,44.6,100,30.24,10.0,Calm,Calm,-,N/A,,Clear,0,2012-09-01 12:15:00
7:55 AM,51.8,50.0,94,30.24,10.0,Calm,Calm,-,N/A,,Clear,0,2012-09-01 12:55:00
8:15 AM,55.4,50.0,82,30.24,10.0,Calm,Calm,-,N/A,,Clear,0,2012-09-01 13:15:00
8:35 AM,59.0,50.0,72,30.24,10.0,Calm,Calm,-,N/A,,Clear,0,2012-09-01 13:35:00
8:55 AM,62.6,50.0,63,30.24,10.0,Calm,Calm,-,N/A,,Clear,0,2012-09-01 13:55:00
9:15 AM,66.2,46.4,49,30.24,10.0,East,4.6,-,N/A,,Clear,80,2012-09-01 14:15:00
9:35 AM,68.0,44.6,43,30.24,10.0,ENE,3.5,-,N/A,,Clear,60,2012-09-01 14:35:00
9:55 AM,69.8,44.6,40,30.24,10.0,East,6.9,-,N/A,,Clear,80,2012-09-01 14:55:00
10:15 AM,69.8,44.6,40,30.23,10.0,ENE,4.6,-,N/A,,Clear,70,2012-09-01 15:15:00
10:35 AM,71.6,44.6,38,30.23,10.0,East,6.9,-,N/A,,Clear,90,2012-09-01 15:35:00
10:55 AM,73.4,42.8,33,30.23,10.0,ENE,5.8,-,N/A,,Clear,70,2012-09-01 15:55:00
11:15 AM,73.4,42.8,33,30.22,10.0,ESE,10.4,-,N/A,,Clear,120,2012-09-01 16:15:00
11:35 AM,75.2,42.8,31,30.22,10.0,ENE,5.8,-,N/A,,Clear,60,2012-09-01 16:35:00
12:35 PM,75.2,42.8,31,30.21,10.0,East,5.8,-,N/A,,Clear,90,2012-09-01 17:35:00
1:15 PM,77.0,42.8,29,30.20,10.0,ENE,9.2,-,N/A,,Clear,60,2012-09-01 18:15:00
1:55 PM,78.8,42.8,28,30.18,10.0,East,5.8,-,N/A,,Clear,90,2012-09-01 18:55:00
2:35 PM,78.8,41.0,26,30.17,10.0,East,10.4,-,N/A,,Clear,80,2012-09-01 19:35:00
3:15 PM,78.8,42.8,28,30.16,10.0,NE,8.1,-,N/A,,Clear,50,2012-09-01 20:15:00
3:55 PM,78.8,42.8,28,30.15,10.0,ESE,6.9,17.3,N/A,,Clear,120,2012-09-01 20:55:00
4:35 PM,78.8,42.8,28,30.14,10.0,East,5.8,-,N/A,,Clear,90,2012-09-01 21:35:00
5:15 PM,78.8,42.8,28,30.13,10.0,East,6.9,-,N/A,,Clear,80,2012-09-01 22:15:00
5:55 PM,77.0,44.6,32,30.12,10.0,ESE,8.1,-,N/A,,Clear,120,2012-09-01 22:55:00
6:15 PM,77.0,44.6,32,30.12,10.0,East,8.1,-,N/A,,Clear,90,2012-09-01 23:15:00
6:35 PM,73.4,42.8,33,30.12,10.0,ESE,5.8,-,N/A,,Clear,120,2012-09-01 23:35:00
7:15 PM,71.6,44.6,38,30.12,10.0,East,5.8,-,N/A,,Clear,100,2012-09-02 00:15:00
7:55 PM,64.4,48.2,56,30.12,10.0,Calm,Calm,-,N/A,,Clear,0,2012-09-02 00:55:00
8:15 PM,62.6,48.2,59,30.13,10.0,Calm,Calm,-,N/A,,Clear,0,2012-09-02 01:15:00
8:35 PM,60.8,48.2,63,30.13,10.0,Calm,Calm,-,N/A,,Clear,0,2012-09-02 01:35:00
8:55 PM,59.0,50.0,72,30.13,10.0,ENE,3.5,-,N/A,,Clear,70,2012-09-02 01:55:00
9:15 PM,62.6,46.4,55,30.13,10.0,East,6.9,-,N/A,,Clear,80,2012-09-02 02:15:00
9:35 PM,64.4,46.4,52,30.13,10.0,East,6.9,-,N/A,,Clear,100,2012-09-02 02:35:00
9:55 PM,64.4,46.4,52,30.13,10.0,East,10.4,-,N/A,,Clear,100,2012-09-02 02:55:00
10:15 PM,62.6,48.2,59,30.14,10.0,ESE,8.1,-,N/A,,Clear,110,2012-09-02 03:15:00
10:55 PM,60.8,48.2,63,30.14,10.0,East,6.9,-,N/A,,Clear,100,2012-09-02 03:55:00
11:15 PM,60.8,50.0,68,30.13,10.0,ESE,5.8,-,N/A,,Clear,110,2012-09-02 04:15:00
11:35 PM,59.0,50.0,72,30.13,10.0,ESE,4.6,-,N/A,,Clear,110,2012-09-02 04:35:00
11:55 PM,60.8,50.0,68,30.13,10.0,ESE,6.9,-,N/A,,Clear,110,2012-09-02 04:55:00